GW2509 Weather Reports


time (UTC)temp
F
wind
direction
speed
knots
gust
knots
rain 1hr
in
rain 24hr
in
rain mn
in
humidity
%
barometer
mb
20260905204926 91 287 4.3 6.1 0.00 0.00 0.00 60 1011.8
20260905204422 91 283 3.5 5.2 0.00 0.00 0.00 58 1012.0
20260905203920 91 277 4.3 5.2 0.00 0.00 0.00 56 1011.8
20260905203416 91 265 3.5 6.1 0.00 0.00 0.00 53 1011.9
20260905202912 91 269 4.3 6.1 0.00 0.00 0.00 52 1011.8
20260905202407 89 287 3.5 3.5 0.00 0.00 0.00 60 1011.9
20260905201903 87 292 1.7 1.7 0.00 0.00 0.00 67 1012.0
20260905201358 85 280 2.6 3.5 0.00 0.00 0.00 69 1012.1
20260905200857 86 316 1.7 6.1 0.00 0.00 0.00 68 1012.3
20260905200353 87 272 3.5 7.0 0.00 0.00 0.00 67 1012.2
20260905195851 88 291 4.3 6.1 0.00 0.00 0.00 66 1012.4
20260905195347 90 274 3.5 3.5 0.00 0.00 0.00 67 1012.3
20260905194842 90 338 1.7 2.6 0.00 0.00 0.00 65 1012.4
20260905194342 91 356 0.9 2.6 0.00 0.00 0.00 63 1012.3
20260905193841 91 280 2.6 3.5 0.00 0.00 0.00 61 1012.3
20260905193336 92 276 2.6 2.6 0.00 0.00 0.00 61 1012.6
20260905192832 92 271 3.5 5.2 0.00 0.00 0.00 60 1012.1
20260905192328 93 279 0.9 5.2 0.00 0.00 0.00 61 1012.3
20260905191827 92 206 1.7 5.2 0.00 0.00 0.00 59 1012.5
20260905191326 92 147 2.6 5.2 0.00 0.00 0.00 60 1012.5
20260905190825 92 160 1.7 2.6 0.00 0.00 0.00 64 1012.5
20260905190324 93 148 1.7 2.6 0.00 0.00 0.00 61 1012.4
20260905185823 93 173 1.7 3.5 0.00 0.00 0.00 59 1012.8
20260905185319 93 227 3.5 3.5 0.00 0.00 0.00 59 1012.8
20260905184818 92 245 0.9 1.7 0.00 0.00 0.00 60 1012.7
20260905184317 93 249 5.2 7.0 0.00 0.00 0.00 60 1012.9
20260905183816 92 273 3.5 5.2 0.00 0.00 0.00 61 1013.3
20260905183311 92 216 0.9 3.5 0.00 0.00 0.00 64 1013.2
20260905182806 91 205 1.7 3.5 0.00 0.00 0.00 63 1013.3
20260905182306 91 261 3.5 3.5 0.00 0.00 0.00 62 1013.2
20260905181801 90 225 3.5 3.5 0.00 0.00 0.00 63 1013.4
20260905181301 90 215 6.1 7.0 0.00 0.00 0.00 63 1013.3
20260905180800 91 206 2.6 5.2 0.00 0.00 0.00 62 1013.3
20260905180255 90 175 1.7 6.1 0.00 0.00 0.00 66 1013.4
20260905175755 90 181 1.7 3.5 0.00 0.00 0.00 63 1013.6
20260905175250 90 248 3.5 6.1 0.00 0.00 0.00 64 1013.6
20260905174745 89 161 2.6 6.1 0.00 0.00 0.00 63 1013.7
20260905174241 89 118 1.7 3.5 0.00 0.00 0.00 64 1013.8
20260905173737 88 171 3.5 3.5 0.00 0.00 0.00 66 1013.4
20260905173232 89 116 2.6 7.0 0.00 0.00 0.00 65 1013.5
20260905172727 88 166 2.6 5.2 0.00 0.00 0.00 67 1013.6
20260905172226 88 222 3.5 5.2 0.00 0.00 0.00 67 1013.7
20260905171722 88 200 3.5 3.5 0.00 0.00 0.00 65 1013.8
20260905171218 88 237 1.7 3.5 0.00 0.00 0.00 63 1013.9
20260905170715 88 134 3.5 5.2 0.00 0.00 0.00 66 1013.9
20260905170215 88 212 5.2 7.0 0.00 0.00 0.00 65 1014.1
20260905165715 87 146 1.7 3.5 0.00 0.00 0.00 64 1014.0
20260905165210 87 215 4.3 5.2 0.00 0.00 0.00 65 1014.0
20260905164705 87 213 1.7 2.6 0.00 0.00 0.00 66 1014.0
20260905164204 85 174 1.7 5.2 0.00 0.00 0.00 68 1013.9
20260905163700 85 132 3.5 5.2 0.00 0.00 0.00 67 1013.9
20260905163157 86 134 4.3 7.8 0.00 0.00 0.00 66 1013.8
20260905162653 86 154 3.5 5.2 0.00 0.00 0.00 68 1014.0
20260905162152 85 140 1.7 5.2 0.00 0.00 0.00 69 1013.9
20260905161648 84 134 6.1 8.7 0.00 0.00 0.00 69 1014.0
20260905161145 85 123 7.0 9.6 0.00 0.00 0.00 68 1013.9
20260905160644 85 128 9.6 9.6 0.00 0.00 0.00 66 1014.1
20260905160143 85 138 7.0 8.7 0.00 0.00 0.00 67 1013.9
20260905155638 84 142 7.0 8.7 0.00 0.00 0.00 67 1014.0
20260905155138 83 139 5.2 7.8 0.00 0.00 0.00 68 1014.2
20260905154637 83 133 5.2 7.0 0.00 0.00 0.00 70 1014.3
20260905154133 83 139 5.2 7.0 0.00 0.00 0.00 69 1014.1
20260905153629 83 166 6.1 7.0 0.00 0.00 0.00 68 1014.3
20260905153124 83 128 7.0 9.6 0.00 0.00 0.00 68 1014.2
20260905152619 83 141 5.2 7.0 0.00 0.00 0.00 72 1014.1
20260905152113 82 135 6.1 13.0 0.00 0.00 0.00 69 1014.0
20260905151609 82 128 5.2 8.7 0.00 0.00 0.00 73 1014.0
20260905151104 82 131 7.8 9.6 0.00 0.00 0.00 69 1014.2
20260905150559 81 149 5.2 9.6 0.00 0.00 0.00 70 1014.3
20260905150058 82 136 9.6 11.3 0.00 0.00 0.00 69 1014.5
20260905145556 81 151 9.6 12.2 0.00 0.00 0.00 70 1014.6
20260905145055 81 125 7.8 9.6 0.00 0.00 0.00 73 1014.4
20260905144551 81 123 9.6 12.2 0.00 0.00 0.00 73 1014.6
20260905144050 81 140 9.6 11.3 0.00 0.00 0.00 72 1014.5
20260905143549 81 125 7.0 8.7 0.00 0.00 0.00 74 1014.2
20260905143044 80 114 7.0 11.3 0.00 0.00 0.00 76 1014.3
20260905142543 80 149 7.0 9.6 0.00 0.00 0.00 76 1014.1
20260905142039 80 137 5.2 9.6 0.00 0.00 0.00 79 1014.2
20260905141538 79 131 7.0 11.3 0.00 0.00 0.00 79 1014.2
20260905141035 80 149 7.0 11.3 0.00 0.00 0.00 80 1014.0
20260905140535 79 156 7.8 11.3 0.00 0.00 0.00 80 1013.9
20260905140034 79 122 7.0 13.0 0.00 0.00 0.00 82 1014.1
20260905135531 79 133 7.8 13.0 0.00 0.00 0.00 83 1014.2
20260905135030 79 135 11.3 13.0 0.00 0.00 0.00 83 1014.2
20260905134525 78 125 9.6 12.2 0.00 0.00 0.00 84 1014.0
20260905134024 78 127 7.8 13.0 0.00 0.00 0.00 85 1014.2
20260905133520 78 104 8.7 11.3 0.00 0.00 0.00 86 1013.9
20260905133020 78 121 7.0 11.3 0.00 0.00 0.00 87 1014.1
20260905132519 78 114 7.8 12.2 0.00 0.00 0.00 87 1014.3
20260905132014 77 106 8.7 11.3 0.00 0.00 0.00 90 1014.2
20260905131515 76 118 7.0 9.6 0.00 0.00 0.00 92 1014.0
20260905131010 76 107 5.2 6.1 0.00 0.00 0.00 92 1014.0
20260905130509 76 120 0.9 1.7 0.00 0.00 0.00 90 1013.8
20260905130004 77 119 0.0 0.0 0.00 0.00 0.00 91 1013.7
20260905125458 77 119 0.0 0.0 0.00 0.00 0.00 89 1013.6
20260905124954 76 119 0.0 0.0 0.00 0.00 0.00 90 1013.7
20260905124451 76 119 0.0 0.0 0.00 0.00 0.00 92 1013.6
20260905123946 76 120 0.9 0.9 0.00 0.00 0.00 92 1013.8
20260905123442 76 103 1.7 1.7 0.00 0.00 0.00 92 1013.7
20260905122942 76 96 1.7 1.7 0.00 0.00 0.00 92 1013.7
20260905122443 76 129 1.7 1.7 0.00 0.00 0.00 92 1013.5
20260905121938 76 142 0.9 0.9 0.00 0.00 0.00 93 1013.4
20260905121433 75 143 0.9 0.9 0.00 0.00 0.00 93 1013.5
20260905120932 75 142 0.9 1.7 0.00 0.00 0.00 94 1013.5
20260905120427 75 199 0.0 0.0 0.00 0.00 0.00 95 1013.5
20260905115922 74 217 0.9 1.7 0.00 0.00 0.00 95 1013.2
20260905115421 74 213 2.6 2.6 0.00 0.00 0.00 95 1013.3
20260905114917 74 223 1.7 2.6 0.00 0.00 0.00 95 1013.4
20260905114416 74 212 1.7 1.7 0.00 0.00 0.00 95 1013.2
20260905113915 74 148 0.0 0.0 0.00 0.00 0.00 95 1013.3
20260905113411 74 89 0.0 0.0 0.00 0.00 0.00 95 1012.9
20260905112906 74 80 0.0 0.0 0.00 0.00 0.00 95 1013.2
20260905112401 73 76 3.5 3.5 0.00 0.00 0.00 95 1013.4
20260905111856 73 125 0.9 0.9 0.00 0.00 0.00 95 1013.0
20260905111356 74 84 1.7 0.9 0.00 0.00 0.00 95 1013.1
20260905110856 74 14 0.0 0.9 0.00 0.00 0.00 95 1013.2
20260905110350 74 13 0.0 0.9 0.00 0.00 0.00 95 1013.1
20260905105845 73 217 0.0 0.9 0.00 0.00 0.00 95 1012.9
20260905105345 74 217 0.0 0.9 0.00 0.00 0.00 95 1013.1
20260905104844 74 216 0.0 1.7 0.00 0.00 0.00 95 1013.2
20260905104341 74 49 0.0 0.0 0.00 0.00 0.00 95 1013.1
20260905103841 74 49 0.0 0.0 0.00 0.00 0.00 95 1013.1
20260905103336 74 50 0.0 0.0 0.00 0.00 0.00 95 1013.2
20260905102832 74 50 0.0 0.9 0.00 0.00 0.00 95 1013.2
20260905102329 74 57 2.6 2.6 0.00 0.00 0.00 94 1013.4
20260905101828 74 122 0.0 0.0 0.00 0.00 0.00 95 1013.2
20260905101327 74 122 0.0 0.0 0.00 0.00 0.00 95 1013.0
20260905100821 73 122 0.0 0.0 0.00 0.00 0.00 95 1012.9
20260905100318 74 122 0.0 0.0 0.00 0.00 0.00 94 1012.9
20260905095817 74 122 0.0 0.0 0.00 0.00 0.00 95 1013.1
20260905095316 74 122 0.0 0.0 0.00 0.00 0.00 95 1013.0
20260905094811 74 122 0.0 0.0 0.00 0.00 0.00 95 1013.2
20260905094307 74 122 0.9 0.9 0.00 0.00 0.00 95 1013.1
20260905093806 74 122 0.0 0.0 0.00 0.00 0.00 94 1013.2
20260905093302 74 122 0.0 0.0 0.00 0.00 0.00 94 1013.2
20260905092757 74 122 0.0 0.9 0.00 0.00 0.00 94 1013.3
20260905092253 74 122 0.9 0.9 0.00 0.00 0.00 94 1013.2
20260905091752 74 123 0.0 0.0 0.00 0.00 0.00 94 1012.9
20260905091247 74 123 0.0 0.0 0.00 0.00 0.00 94 1012.9
20260905090746 73 123 0.0 0.0 0.00 0.00 0.00 94 1013.0
20260905090242 73 123 0.0 0.9 0.00 0.00 0.00 93 1013.1
20260905085742 74 160 0.0 0.0 0.00 0.00 0.00 93 1012.8
20260905085241 74 176 0.0 0.0 0.00 0.00 0.00 93 1012.7
20260905084742 74 176 0.0 0.0 0.00 0.00 0.00 93 1012.8
20260905084241 75 176 0.0 0.0 0.00 0.00 0.00 93 1012.7
20260905083737 74 176 0.0 0.0 0.00 0.00 0.00 92 1012.7
20260905083232 75 176 0.0 0.0 0.00 0.00 0.00 92 1012.6
20260905082728 75 176 0.0 0.0 0.00 0.00 0.00 92 1012.6
20260905082223 75 176 0.0 0.0 0.00 0.00 0.00 93 1012.5
20260905081718 75 176 0.0 0.0 0.00 0.00 0.00 93 1012.6
20260905081213 75 176 0.0 0.0 0.00 0.00 0.00 93 1012.6
20260905080713 75 176 0.0 0.0 0.00 0.00 0.00 94 1012.6
20260905080212 75 176 0.0 0.0 0.00 0.00 0.00 94 1012.6
20260905075712 75 176 0.0 0.9 0.00 0.00 0.00 95 1012.5
20260905075211 74 153 0.0 0.9 0.00 0.00 0.00 95 1012.7
20260905074710 74 153 0.9 0.9 0.00 0.00 0.00 95 1012.5
20260905074206 74 135 0.0 0.0 0.00 0.00 0.00 95 1012.5
20260905073701 74 135 0.0 0.0 0.00 0.00 0.00 95 1012.7
20260905073157 74 135 0.0 0.0 0.00 0.00 0.00 95 1012.7
20260905072656 74 135 0.0 0.0 0.00 0.00 0.00 95 1012.7
20260905072152 74 135 0.0 0.0 0.00 0.00 0.00 95 1012.8
20260905071648 74 135 0.0 0.0 0.00 0.00 0.00 95 1012.6
20260905071144 74 135 0.0 0.0 0.00 0.00 0.00 95 1012.6
20260905070638 75 135 0.0 0.0 0.00 0.00 0.00 95 1012.8
20260905070135 75 135 0.0 0.0 0.00 0.00 0.00 94 1012.8
20260905065633 75 135 0.0 0.0 0.00 0.00 0.00 94 1012.8
20260905065127 75 135 0.0 0.0 0.00 0.00 0.00 95 1012.9
20260905064623 75 135 0.0 0.0 0.00 0.00 0.00 94 1013.0
20260905064118 75 135 0.0 0.0 0.00 0.00 0.00 94 1013.2
20260905063617 76 135 0.0 0.0 0.00 0.00 0.00 94 1013.0
20260905063114 76 135 0.0 0.0 0.00 0.00 0.00 94 1013.3
20260905062609 76 135 0.0 0.0 0.00 0.00 0.00 94 1013.2
20260905062108 75 135 0.0 0.0 0.00 0.00 0.00 93 1013.1
20260905061603 76 135 0.0 0.0 0.00 0.00 0.00 93 1013.2
20260905061103 76 135 0.0 0.0 0.00 0.00 0.00 92 1013.5
20260905060558 76 135 0.0 0.0 0.00 0.00 0.00 92 1013.2
20260905060054 77 135 0.0 0.0 0.00 0.00 0.00 92 1013.2
20260905055553 77 135 0.0 0.0 0.00 0.00 0.00 91 1013.2
20260905055048 77 135 0.0 0.0 0.00 0.00 0.00 90 1013.4
20260905054544 78 135 0.0 0.0 0.00 0.00 0.00 91 1013.3
20260905054039 78 135 0.0 0.0 0.00 0.00 0.00 91 1013.6
20260905053538 78 135 0.0 0.0 0.00 0.00 0.00 91 1013.3
20260905053034 77 135 0.0 0.0 0.00 0.00 0.00 91 1013.3
20260905052533 78 135 0.0 0.0 0.00 0.00 0.00 91 1013.4
20260905052028 78 135 0.0 0.0 0.00 0.00 0.00 91 1013.4
20260905051524 78 135 0.0 0.0 0.00 0.00 0.00 91 1013.3
20260905051021 78 135 0.0 0.0 0.00 0.00 0.00 91 1013.4
20260905050516 77 135 0.9 0.9 0.00 0.00 0.00 92 1013.3
20260905050013 77 135 0.0 0.0 0.00 0.00 0.00 92 1013.3
20260905045507 77 135 0.0 0.9 0.00 0.00 0.00 92 1013.6
20260905045002 77 140 1.7 1.7 0.00 0.00 0.00 93 1013.5
20260905044457 77 141 1.7 1.7 0.00 0.00 0.00 94 1013.4
20260905043956 77 144 0.9 1.7 0.00 0.00 0.00 95 1013.6
20260905043456 77 144 1.7 1.7 0.00 0.00 0.00 95 1013.5
20260905042951 76 147 1.7 1.7 0.00 0.00 0.00 95 1013.4
20260905042450 77 178 0.0 0.0 0.00 0.00 0.00 96 1013.4
20260905041946 77 178 0.0 0.0 0.00 0.00 0.00 96 1013.4
20260905041441 77 140 0.0 0.0 0.00 0.00 0.00 96 1013.5
20260905040937 78 140 0.9 0.9 0.00 0.00 0.00 96 1013.7
20260905040436 78 140 0.0 0.0 0.00 0.00 0.00 96 1013.7
20260905035935 78 140 0.0 0.0 0.00 0.00 0.00 96 1013.7
20260905035430 79 140 0.0 0.0 0.00 0.00 0.00 96 1013.7
20260905034928 78 140 0.0 0.0 0.00 0.00 0.00 96 1013.8
20260905034422 78 140 0.0 0.0 0.00 0.00 0.00 95 1013.7
20260905033922 78 140 0.0 0.0 0.00 0.00 0.00 95 1013.7
20260905033416 79 140 0.0 0.0 0.00 0.00 0.00 95 1014.0
20260905032916 79 140 0.0 0.0 0.00 0.00 0.00 95 1013.9
20260905032412 79 140 0.0 0.0 0.00 0.00 0.00 95 1013.8
20260905031907 79 140 0.0 0.0 0.00 0.00 0.00 95 1014.0
20260905031403 79 140 0.0 0.0 0.00 0.00 0.00 95 1013.9
20260905030858 80 140 0.0 0.0 0.00 0.00 0.00 95 1013.8
20260905030354 79 140 0.0 0.0 0.00 0.00 0.00 94 1013.8
20260905025852 79 140 0.0 0.0 0.00 0.00 0.00 94 1013.7
20260905025348 79 140 0.0 0.0 0.00 0.00 0.00 94 1013.8
20260905024844 80 140 0.0 0.0 0.00 0.00 0.00 95 1013.8
20260905024344 80 140 0.0 0.0 0.00 0.00 0.00 95 1013.8
20260905023840 79 140 0.0 0.0 0.00 0.00 0.00 94 1013.7
20260905023335 80 140 0.0 0.0 0.00 0.00 0.00 94 1013.7
20260905022833 80 140 0.0 0.0 0.00 0.00 0.00 94 1013.6
20260905022329 80 140 0.0 0.0 0.00 0.00 0.00 94 1013.5
20260905021824 80 140 0.9 0.9 0.00 0.00 0.00 93 1013.6
20260905021319 81 140 1.7 0.9 0.00 0.00 0.00 93 1013.7
20260905020814 81 140 0.9 0.9 0.00 0.00 0.00 94 1013.7
20260905020309 81 140 0.0 0.0 0.00 0.00 0.00 94 1013.7
20260905015808 81 140 0.0 0.0 0.00 0.00 0.00 93 1013.5
20260905015306 81 140 0.0 0.0 0.00 0.00 0.00 94 1013.6
20260905014801 80 140 0.0 0.0 0.00 0.00 0.00 93 1013.7
20260905014257 80 140 0.0 0.0 0.00 0.00 0.00 93 1013.4
20260905013752 80 140 0.9 1.7 0.00 0.00 0.00 93 1013.3
20260905013248 80 139 1.7 1.7 0.00 0.00 0.00 92 1013.4
20260905012743 80 146 1.7 1.7 0.00 0.00 0.00 91 1013.1
20260905012239 81 157 0.9 0.9 0.00 0.00 0.00 90 1013.4
20260905011736 81 158 0.0 0.0 0.00 0.00 0.00 89 1013.4
20260905011231 82 158 0.9 0.9 0.00 0.00 0.00 87 1013.4
20260905010731 82 158 0.0 0.0 0.00 0.00 0.00 85 1013.5
20260905010226 83 158 0.0 0.0 0.00 0.00 0.00 83 1013.3
20260905005723 83 158 0.0 0.0 0.00 0.00 0.00 83 1013.3
20260905005219 83 158 0.0 0.0 0.00 0.00 0.00 83 1013.2
20260905004713 83 158 0.0 0.0 0.00 0.00 0.00 82 1013.2
20260905004208 84 158 0.0 0.0 0.00 0.00 0.00 82 1013.1
20260905003703 84 158 0.0 0.0 0.00 0.00 0.00 82 1012.9
20260905003159 83 158 0.9 0.9 0.00 0.00 0.00 83 1012.9
20260905002654 83 117 1.7 1.7 0.00 0.00 0.00 83 1013.0
20260905002154 83 133 0.0 0.0 0.00 0.00 0.00 84 1012.9
20260905001649 84 133 0.0 0.9 0.00 0.00 0.00 84 1013.1
20260905001148 85 145 0.9 0.9 0.00 0.00 0.00 84 1013.0
20260905000644 86 146 0.9 0.9 0.00 0.00 0.00 82 1013.0
20260905000140 87 147 1.7 1.7 0.00 0.00 0.00 80 1013.1
20260904235639 88 157 0.9 0.9 0.00 0.00 0.00 80 1013.2
20260904235139 89 157 1.7 1.7 0.00 0.00 0.00 76 1012.9
20260904234634 90 205 0.0 0.0 0.00 0.00 0.00 74 1013.1
20260904234130 91 206 0.0 0.0 0.00 0.00 0.00 71 1013.0
20260904233625 92 207 0.0 0.0 0.00 0.00 0.00 63 1013.1
20260904233121 93 208 0.0 0.0 0.00 0.00 0.00 60 1012.9
20260904232618 93 208 0.9 0.9 0.00 0.00 0.00 60 1013.3
20260904232114 93 208 0.9 0.9 0.00 0.00 0.00 58 1013.1
20260904231609 93 209 0.9 0.9 0.00 0.00 0.00 58 1013.2
20260904231109 94 218 1.7 1.7 0.00 0.00 0.00 57 1012.9
20260904230608 94 226 0.9 1.7 0.00 0.00 0.00 58 1012.9
20260904230104 94 235 0.9 1.7 0.00 0.00 0.00 57 1012.8
20260904225601 94 238 0.9 1.7 0.00 0.00 0.00 56 1012.9
20260904225056 94 208 2.6 2.6 0.00 0.00 0.00 55 1013.0
20260904224551 94 220 1.7 2.6 0.00 0.00 0.00 54 1013.0
20260904224046 94 227 2.6 3.5 0.00 0.00 0.00 54 1012.8
20260904223545 95 222 2.6 2.6 0.00 0.00 0.00 54 1012.9
20260904223041 94 272 1.7 2.6 0.00 0.00 0.00 54 1013.1
20260904222536 94 256 1.7 3.5 0.00 0.00 0.00 54 1012.8
20260904222031 95 218 3.5 5.2 0.00 0.00 0.00 53 1012.9
20260904221526 95 216 2.6 6.1 0.00 0.00 0.00 54 1012.8
20260904221021 95 232 4.3 5.2 0.00 0.00 0.00 51 1013.1
20260904220520 95 238 2.6 5.2 0.00 0.00 0.00 53 1012.9
20260904220016 95 282 4.3 5.2 0.00 0.00 0.00 51 1013.0
20260904215516 95 237 3.5 6.1 0.00 0.00 0.00 52 1013.1
20260904215012 95 235 2.6 3.5 0.00 0.00 0.00 53 1013.1
20260904214507 96 240 4.3 5.2 0.00 0.00 0.00 50 1013.1
20260904214002 95 251 3.5 6.1 0.00 0.00 0.00 51 1013.2
20260904213500 95 254 3.5 5.2 0.00 0.00 0.00 49 1013.3
20260904212957 95 212 5.2 7.0 0.00 0.00 0.00 49 1013.2
20260904212456 95 215 4.3 5.2 0.00 0.00 0.00 50 1013.2
20260904211952 95 239 4.3 7.0 0.00 0.00 0.00 52 1013.1
20260904211452 95 236 3.5 7.8 0.00 0.00 0.00 51 1013.3
20260904210948 96 210 4.3 6.1 0.00 0.00 0.00 50 1013.3
20260904210446 95 218 3.5 5.2 0.00 0.00 0.00 51 1013.2
20260904205942 96 216 5.2 7.0 0.00 0.00 0.00 51 1013.3
20260904205437 95 252 5.2 7.0 0.00 0.00 0.00 51 1013.5